Time,TemperatureF,DewpointF,PressureIn,WindDirection,WindDirectionDegrees,WindSpeedMPH,WindSpeedGustMPH,Humidity,HourlyPrecipIn,Conditions,Clouds,dailyrainin,SolarRadiationWatts/m^2,SoftwareType,DateUTC
2013-09-30 00:01:00,44.0,26.0,-100.00,NE,50,0.0,3.0,49,0.00,,,0.00,0.000000,,2013-09-30 07:01:00,
2013-09-30 00:12:00,44.0,26.0,-100.00,NE,50,0.0,3.0,49,0.00,,,0.00,0.000000,,2013-09-30 07:12:00,
2013-09-30 00:42:00,42.0,25.0,-100.00,NNW,348,0.0,0.0,51,0.00,,,0.00,0.000000,,2013-09-30 07:42:00,
2013-09-30 02:42:00,41.0,26.0,-100.00,NNW,343,0.0,0.0,54,0.00,,,0.00,0.000000,,2013-09-30 09:42:00,
2013-09-30 02:53:00,41.0,26.0,-100.00,NNW,343,0.0,0.0,54,0.00,,,0.00,0.000000,,2013-09-30 09:53:00,
2013-09-30 03:03:00,41.0,26.0,-100.00,NNW,343,0.0,0.0,54,0.00,,,0.00,0.000000,,2013-09-30 10:03:00,
2013-09-30 03:13:00,41.0,26.0,-100.00,NNW,343,0.0,0.0,54,0.00,,,0.00,0.000000,,2013-09-30 10:13:00,
2013-09-30 03:43:00,39.0,25.0,-100.00,WNW,284,0.0,0.0,58,0.00,,,0.00,0.000000,,2013-09-30 10:43:00,
2013-09-30 03:53:00,39.0,25.0,-100.00,WNW,284,0.0,0.0,58,0.00,,,0.00,0.000000,,2013-09-30 10:53:00,
2013-09-30 04:02:00,39.0,25.0,-100.00,WNW,284,0.0,0.0,58,0.00,,,0.00,0.000000,,2013-09-30 11:02:00,
2013-09-30 04:43:00,40.0,27.0,-100.00,East,79,0.0,0.0,60,0.00,,,0.00,0.000000,,2013-09-30 11:43:00,
2013-09-30 04:52:00,40.0,27.0,-100.00,East,79,0.0,0.0,60,0.00,,,0.00,0.000000,,2013-09-30 11:52:00,
2013-09-30 05:02:00,40.0,27.0,-100.00,East,79,0.0,0.0,60,0.00,,,0.00,0.000000,,2013-09-30 12:02:00,
2013-09-30 05:12:00,40.0,27.0,-100.00,East,79,0.0,0.0,60,0.00,,,0.00,0.000000,,2013-09-30 12:12:00,
2013-09-30 07:42:00,40.0,27.0,-100.00,NNE,24,0.0,0.0,60,-99.99,,,0.00,13.000000,,2013-09-30 14:42:00,
2013-09-30 08:45:00,57.0,27.0,-100.00,ESE,113,0.0,0.0,32,-99.99,,,0.00,276.000000,,2013-09-30 15:45:00,
2013-09-30 08:54:00,57.0,27.0,-100.00,ESE,113,0.0,0.0,32,-99.99,,,0.00,276.000000,,2013-09-30 15:54:00,
2013-09-30 09:04:00,57.0,27.0,-100.00,ESE,113,0.0,0.0,32,-99.99,,,0.00,276.000000,,2013-09-30 16:04:00,
2013-09-30 09:14:00,57.0,27.0,-100.00,ESE,113,0.0,0.0,32,-99.99,,,0.00,276.000000,,2013-09-30 16:14:00,
2013-09-30 09:44:00,72.0,29.0,-100.00,SSW,203,0.0,0.0,20,0.00,,,0.00,561.000000,,2013-09-30 16:44:00,
2013-09-30 09:53:00,72.0,29.0,-100.00,SSW,203,0.0,0.0,20,0.00,,,0.00,561.000000,,2013-09-30 16:53:00,
2013-09-30 10:03:00,72.0,29.0,-100.00,SSW,203,0.0,0.0,20,0.00,,,0.00,561.000000,,2013-09-30 17:03:00,
2013-09-30 10:13:00,72.0,29.0,-100.00,SSW,203,0.0,0.0,20,0.00,,,0.00,561.000000,,2013-09-30 17:13:00,
2013-09-30 10:43:00,81.0,24.0,-100.00,South,187,3.0,6.0,12,0.00,,,0.00,820.000000,,2013-09-30 17:43:00,
2013-09-30 10:53:00,81.0,24.0,-100.00,South,187,3.0,6.0,12,0.00,,,0.00,820.000000,,2013-09-30 17:53:00,
2013-09-30 11:01:00,81.0,24.0,-100.00,South,187,3.0,6.0,12,0.00,,,0.00,820.000000,,2013-09-30 18:01:00,
2013-09-30 11:12:00,81.0,24.0,-100.00,South,187,3.0,6.0,12,0.00,,,0.00,820.000000,,2013-09-30 18:12:00,
2013-09-30 11:42:00,82.0,22.0,-100.00,South,191,7.0,13.0,11,0.00,,,0.00,1019.000000,,2013-09-30 18:42:00,
2013-09-30 11:53:00,82.0,22.0,-100.00,South,191,7.0,13.0,11,0.00,,,0.00,1019.000000,,2013-09-30 18:53:00,
2013-09-30 12:02:00,82.0,22.0,-100.00,South,191,7.0,13.0,11,0.00,,,0.00,1019.000000,,2013-09-30 19:02:00,
2013-09-30 12:12:00,82.0,22.0,-100.00,South,191,7.0,13.0,11,0.00,,,0.00,1019.000000,,2013-09-30 19:12:00,
2013-09-30 12:42:00,88.0,22.0,-100.00,West,264,6.0,16.0,9,0.00,,,0.00,1135.000000,,2013-09-30 19:42:00,
2013-09-30 12:53:00,88.0,22.0,-100.00,West,264,6.0,16.0,9,0.00,,,0.00,1135.000000,,2013-09-30 19:53:00,
2013-09-30 13:02:00,88.0,22.0,-100.00,West,264,6.0,16.0,9,0.00,,,0.00,1135.000000,,2013-09-30 20:02:00,
2013-09-30 13:12:00,88.0,22.0,-100.00,West,264,6.0,16.0,9,0.00,,,0.00,1135.000000,,2013-09-30 20:12:00,
2013-09-30 13:43:00,87.0,19.0,-100.00,West,269,6.0,15.0,8,0.00,,,0.00,1176.000000,,2013-09-30 20:43:00,
2013-09-30 13:53:00,87.0,19.0,-100.00,West,269,6.0,15.0,8,0.00,,,0.00,1176.000000,,2013-09-30 20:53:00,
2013-09-30 14:02:00,87.0,19.0,-100.00,West,269,6.0,15.0,8,0.00,,,0.00,1176.000000,,2013-09-30 21:02:00,
2013-09-30 14:11:00,87.0,19.0,-100.00,West,269,6.0,15.0,8,0.00,,,0.00,1176.000000,,2013-09-30 21:11:00,
2013-09-30 14:44:00,88.0,19.0,-100.00,West,272,7.0,19.0,8,0.00,,,0.00,1113.000000,,2013-09-30 21:44:00,
2013-09-30 14:54:00,88.0,19.0,-100.00,West,272,7.0,19.0,8,0.00,,,0.00,1113.000000,,2013-09-30 21:54:00,
2013-09-30 15:03:00,88.0,19.0,-100.00,West,272,7.0,19.0,8,0.00,,,0.00,1113.000000,,2013-09-30 22:03:00,
2013-09-30 15:13:00,88.0,19.0,-100.00,West,272,7.0,19.0,8,0.00,,,0.00,1113.000000,,2013-09-30 22:13:00,
2013-09-30 15:44:00,87.0,21.0,-100.00,South,184,7.0,17.0,9,0.00,,,0.00,968.000000,,2013-09-30 22:44:00,
2013-09-30 15:54:00,87.0,21.0,-100.00,South,184,7.0,17.0,9,0.00,,,0.00,968.000000,,2013-09-30 22:54:00,
2013-09-30 16:03:00,87.0,21.0,-100.00,South,184,7.0,17.0,9,0.00,,,0.00,968.000000,,2013-09-30 23:03:00,
2013-09-30 16:12:00,87.0,21.0,-100.00,South,184,7.0,17.0,9,0.00,,,0.00,968.000000,,2013-09-30 23:12:00,
2013-09-30 16:43:00,85.0,27.0,-100.00,West,266,8.0,15.0,12,0.00,,,0.00,741.000000,,2013-09-30 23:43:00,
2013-09-30 16:54:00,85.0,27.0,-100.00,West,266,8.0,15.0,12,0.00,,,0.00,741.000000,,2013-09-30 23:54:00,
2013-09-30 17:02:00,85.0,27.0,-100.00,West,266,8.0,15.0,12,0.00,,,0.00,741.000000,,2013-10-01 00:02:00,
2013-09-30 17:12:00,85.0,27.0,-100.00,West,266,8.0,15.0,12,0.00,,,0.00,741.000000,,2013-10-01 00:12:00,
2013-09-30 17:43:00,81.0,31.0,-100.00,West,273,6.0,18.0,16,0.00,,,0.00,463.000000,,2013-10-01 00:43:00,
2013-09-30 17:52:00,81.0,31.0,-100.00,West,273,6.0,18.0,16,0.00,,,0.00,463.000000,,2013-10-01 00:52:00,
2013-09-30 18:02:00,81.0,31.0,-100.00,West,273,6.0,18.0,16,0.00,,,0.00,463.000000,,2013-10-01 01:02:00,
2013-09-30 18:12:00,81.0,31.0,-100.00,West,273,6.0,18.0,16,0.00,,,0.00,463.000000,,2013-10-01 01:12:00,
2013-09-30 18:42:00,72.0,29.0,-100.00,West,268,4.0,15.0,20,0.00,,,0.00,173.000000,,2013-10-01 01:42:00,
2013-09-30 18:52:00,72.0,29.0,-100.00,West,268,4.0,15.0,20,0.00,,,0.00,173.000000,,2013-10-01 01:52:00,
2013-09-30 19:02:00,72.0,29.0,-100.00,West,268,4.0,15.0,20,0.00,,,0.00,173.000000,,2013-10-01 02:02:00,
2013-09-30 19:12:00,72.0,29.0,-100.00,West,268,4.0,15.0,20,0.00,,,0.00,173.000000,,2013-10-01 02:12:00,
2013-09-30 19:43:00,68.0,32.0,-100.00,WNW,295,4.0,12.0,26,0.00,,,0.00,3.000000,,2013-10-01 02:43:00,
2013-09-30 19:52:00,68.0,32.0,-100.00,WNW,295,4.0,12.0,26,0.00,,,0.00,3.000000,,2013-10-01 02:52:00,
2013-09-30 20:02:00,68.0,32.0,-100.00,WNW,295,4.0,12.0,26,0.00,,,0.00,3.000000,,2013-10-01 03:02:00,
2013-09-30 20:12:00,68.0,32.0,-100.00,WNW,295,4.0,12.0,26,0.00,,,0.00,3.000000,,2013-10-01 03:12:00,
2013-09-30 20:44:00,60.0,29.0,-100.00,ESE,123,0.0,9.0,31,0.00,,,0.00,0.000000,,2013-10-01 03:44:00,
2013-09-30 20:55:00,60.0,29.0,-100.00,ESE,123,0.0,9.0,31,0.00,,,0.00,0.000000,,2013-10-01 03:55:00,
2013-09-30 21:04:00,60.0,29.0,-100.00,ESE,123,0.0,9.0,31,0.00,,,0.00,0.000000,,2013-10-01 04:04:00,
2013-09-30 21:14:00,60.0,29.0,-100.00,ESE,123,0.0,9.0,31,0.00,,,0.00,0.000000,,2013-10-01 04:14:00,